| time (UTC) | temp F | wind direction | speed MPH | gust MPH | rain 1hr in | rain 24hr in | rain mn in | humidity % | barometer mb |
| 20260906212504 | 86 | 320 | 2.0 | 6.0 | 0.00 | 0.00 | 0.00 | 10 | 1020.4 |
| 20260906212004 | 87 | 249 | 3.0 | 6.0 | 0.00 | 0.00 | 0.00 | 10 | 1020.4 |
| 20260906211503 | 87 | 221 | 2.0 | 8.0 | 0.00 | 0.00 | 0.00 | 10 | 1020.3 |
| 20260906211003 | 87 | 259 | 1.0 | 8.0 | 0.00 | 0.00 | 0.00 | 10 | 1020.3 |
| 20260906210504 | 87 | 248 | 2.0 | 11.0 | 0.00 | 0.00 | 0.00 | 10 | 1020.4 |
| 20260906210004 | 87 | 274 | 4.0 | 11.0 | 0.00 | 0.00 | 0.00 | 10 | 1020.2 |
| 20260906205503 | 87 | 4 | 4.0 | 9.0 | 0.00 | 0.00 | 0.00 | 10 | 1020.2 |
| 20260906205003 | 87 | 177 | 3.0 | 11.0 | 0.00 | 0.00 | 0.00 | 10 | 1020.2 |
| 20260906204504 | 87 | 332 | 4.0 | 11.0 | 0.00 | 0.00 | 0.00 | 10 | 1020.1 |
| 20260906204003 | 88 | 25 | 4.0 | 13.0 | 0.00 | 0.00 | 0.00 | 10 | 1020.1 |
| 20260906203503 | 88 | 194 | 3.0 | 13.0 | 0.00 | 0.00 | 0.00 | 10 | 1020.2 |
| 20260906203003 | 88 | 327 | 3.0 | 11.0 | 0.00 | 0.00 | 0.00 | 10 | 1020.2 |
| 20260906202504 | 88 | 11 | 3.0 | 11.0 | 0.00 | 0.00 | 0.00 | 10 | 1020.2 |
| 20260906202003 | 88 | 13 | 3.0 | 11.0 | 0.00 | 0.00 | 0.00 | 10 | 1020.2 |
| 20260906201503 | 88 | 35 | 3.0 | 11.0 | 0.00 | 0.00 | 0.00 | 10 | 1020.2 |
| 20260906201003 | 88 | 32 | 3.0 | 11.0 | 0.00 | 0.00 | 0.00 | 10 | 1020.3 |
| 20260906200504 | 88 | 9 | 2.0 | 9.0 | 0.00 | 0.00 | 0.00 | 10 | 1020.1 |
| 20260906200004 | 88 | 25 | 2.0 | 11.0 | 0.00 | 0.00 | 0.00 | 10 | 1020.2 |
| 20260906195503 | 87 | 41 | 4.0 | 11.0 | 0.00 | 0.00 | 0.00 | 10 | 1020.1 |
| 20260906195003 | 88 | 111 | 3.0 | 8.0 | 0.00 | 0.00 | 0.00 | 10 | 1020.1 |
| 20260906194504 | 88 | 127 | 2.0 | 5.0 | 0.00 | 0.00 | 0.00 | 10 | 1020.1 |
| 20260906194004 | 88 | 129 | 2.0 | 8.0 | 0.00 | 0.00 | 0.00 | 10 | 1020.0 |
| 20260906193503 | 88 | 126 | 4.0 | 8.0 | 0.00 | 0.00 | 0.00 | 10 | 1019.8 |
| 20260906193004 | 88 | 151 | 2.0 | 4.0 | 0.00 | 0.00 | 0.00 | 10 | 1019.9 |
| 20260906192503 | 89 | 134 | 2.0 | 5.0 | 0.00 | 0.00 | 0.00 | 10 | 1019.8 |
| 20260906192003 | 89 | 98 | 2.0 | 5.0 | 0.00 | 0.00 | 0.00 | 10 | 1019.8 |
| 20260906191503 | 89 | 88 | 1.0 | 6.0 | 0.00 | 0.00 | 0.00 | 10 | 1019.7 |
| 20260906191003 | 89 | 82 | 2.0 | 6.0 | 0.00 | 0.00 | 0.00 | 10 | 1019.7 |
| 20260906190504 | 89 | 70 | 1.0 | 6.0 | 0.00 | 0.00 | 0.00 | 10 | 1019.6 |
| 20260906190003 | 89 | 0 | 0.0 | 8.0 | 0.00 | 0.00 | 0.00 | 10 | 1019.4 |
| 20260906185503 | 89 | 113 | 3.0 | 8.0 | 0.00 | 0.00 | 0.00 | 10 | 1019.3 |
| 20260906185004 | 89 | 97 | 2.0 | 6.0 | 0.00 | 0.00 | 0.00 | 10 | 1019.4 |
| 20260906184503 | 90 | 89 | 2.0 | 6.0 | 0.00 | 0.00 | 0.00 | 10 | 1019.3 |
| 20260906184003 | 90 | 87 | 2.0 | 6.0 | 0.00 | 0.00 | 0.00 | 10 | 1019.2 |
| 20260906183503 | 90 | 0 | 0.0 | 5.0 | 0.00 | 0.00 | 0.00 | 10 | 1019.1 |
| 20260906183004 | 90 | 70 | 2.0 | 4.0 | 0.00 | 0.00 | 0.00 | 10 | 1019.0 |
| 20260906182503 | 90 | 92 | 1.0 | 5.0 | 0.00 | 0.00 | 0.00 | 10 | 1019.0 |
| 20260906182003 | 90 | 0 | 0.0 | 5.0 | 0.00 | 0.00 | 0.00 | 10 | 1018.8 |
| 20260906181504 | 90 | 82 | 1.0 | 4.0 | 0.00 | 0.00 | 0.00 | 10 | 1018.9 |
| 20260906181004 | 91 | 59 | 2.0 | 5.0 | 0.00 | 0.00 | 0.00 | 10 | 1018.6 |
| 20260906180503 | 91 | 33 | 2.0 | 5.0 | 0.00 | 0.00 | 0.00 | 10 | 1018.5 |
| 20260906180003 | 91 | 0 | 0.0 | 6.0 | 0.00 | 0.00 | 0.00 | 10 | 1018.6 |
| 20260906175504 | 91 | 15 | 2.0 | 6.0 | 0.00 | 0.00 | 0.00 | 10 | 1018.5 |
| 20260906175003 | 91 | 24 | 1.0 | 4.0 | 0.00 | 0.00 | 0.00 | 10 | 1018.4 |
| 20260906174503 | 92 | 0 | 0.0 | 5.0 | 0.00 | 0.00 | 0.00 | 10 | 1018.2 |
| 20260906174003 | 92 | 23 | 1.0 | 5.0 | 0.00 | 0.00 | 0.00 | 10 | 1018.1 |
| 20260906173504 | 92 | 324 | 2.0 | 4.0 | 0.00 | 0.00 | 0.00 | 10 | 1018.0 |
| 20260906173003 | 92 | 220 | 2.0 | 6.0 | 0.00 | 0.00 | 0.00 | 10 | 1018.0 |
| 20260906172503 | 92 | 260 | 3.0 | 8.0 | 0.00 | 0.00 | 0.00 | 10 | 1017.8 |
| 20260906172004 | 93 | 263 | 2.0 | 8.0 | 0.00 | 0.00 | 0.00 | 10 | 1017.8 |
| 20260906171503 | 93 | 268 | 2.0 | 8.0 | 0.00 | 0.00 | 0.00 | 10 | 1017.6 |
| 20260906171003 | 93 | 281 | 2.0 | 10.0 | 0.00 | 0.00 | 0.00 | 10 | 1017.6 |
| 20260906170503 | 94 | 268 | 4.0 | 10.0 | 0.00 | 0.00 | 0.00 | 10 | 1017.5 |
| 20260906170004 | 94 | 293 | 2.0 | 9.0 | 0.00 | 0.00 | 0.00 | 10 | 1017.4 |
| 20260906165503 | 94 | 270 | 2.0 | 7.0 | 0.00 | 0.00 | 0.00 | 10 | 1017.3 |
| 20260906165003 | 94 | 275 | 3.0 | 7.0 | 0.00 | 0.00 | 0.00 | 10 | 1017.2 |
| 20260906164504 | 95 | 287 | 3.0 | 10.0 | 0.00 | 0.00 | 0.00 | 10 | 1017.3 |
| 20260906164003 | 95 | 261 | 1.0 | 10.0 | 0.00 | 0.00 | 0.00 | 10 | 1017.2 |
| 20260906163503 | 95 | 257 | 3.0 | 7.0 | 0.00 | 0.00 | 0.00 | 10 | 1017.0 |
| 20260906163004 | 96 | 295 | 1.0 | 10.0 | 0.00 | 0.00 | 0.00 | 10 | 1017.1 |
| 20260906162503 | 96 | 264 | 3.0 | 10.0 | 0.00 | 0.00 | 0.00 | 10 | 1016.9 |
| 20260906162003 | 96 | 286 | 4.0 | 9.0 | 0.00 | 0.00 | 0.00 | 10 | 1016.9 |
| 20260906161503 | 97 | 322 | 2.0 | 11.0 | 0.00 | 0.00 | 0.00 | 10 | 1017.0 |
| 20260906161004 | 97 | 338 | 4.0 | 11.0 | 0.00 | 0.00 | 0.00 | 10 | 1016.8 |
| 20260906160504 | 97 | 321 | 3.0 | 11.0 | 0.00 | 0.00 | 0.00 | 10 | 1016.8 |
| 20260906160003 | 98 | 286 | 5.0 | 11.0 | 0.00 | 0.00 | 0.00 | 10 | 1016.7 |
| 20260906155503 | 98 | 248 | 2.0 | 8.0 | 0.00 | 0.00 | 0.00 | 10 | 1016.7 |
| 20260906155003 | 99 | 225 | 2.0 | 7.0 | 0.00 | 0.00 | 0.00 | 10 | 1016.6 |
| 20260906154503 | 100 | 222 | 1.0 | 4.0 | 0.00 | 0.00 | 0.00 | 10 | 1016.6 |
| 20260906154004 | 100 | 239 | 1.0 | 7.0 | 0.00 | 0.00 | 0.00 | 10 | 1016.6 |
| 20260906153504 | 100 | 273 | 2.0 | 8.0 | 0.00 | 0.00 | 0.00 | 10 | 1016.7 |
| 20260906153003 | 100 | 265 | 2.0 | 10.0 | 0.00 | 0.00 | 0.00 | 10 | 1016.7 |
| 20260906152503 | 101 | 266 | 2.0 | 10.0 | 0.00 | 0.00 | 0.00 | 10 | 1016.7 |
| 20260906152004 | 102 | 280 | 2.0 | 9.0 | 0.00 | 0.00 | 0.00 | 10 | 1016.6 |
| 20260906151504 | 103 | 269 | 3.0 | 9.0 | 0.00 | 0.00 | 0.00 | 10 | 1016.5 |
| 20260906151003 | 104 | 302 | 2.0 | 7.0 | 0.00 | 0.00 | 0.00 | 10 | 1016.6 |
| 20260906150503 | 104 | 0 | 0.0 | 8.0 | 0.00 | 0.00 | 0.00 | 10 | 1016.5 |
| 20260906150003 | 104 | 310 | 1.0 | 8.0 | 0.00 | 0.00 | 0.00 | 10 | 1016.4 |
| 20260906145504 | 104 | 305 | 2.0 | 8.0 | 0.00 | 0.00 | 0.00 | 10 | 1016.4 |
| 20260906145003 | 105 | 301 | 4.0 | 7.0 | 0.00 | 0.00 | 0.00 | 10 | 1016.4 |
| 20260906144503 | 105 | 301 | 2.0 | 6.0 | 0.00 | 0.00 | 0.00 | 10 | 1016.5 |
| 20260906144003 | 106 | 329 | 2.0 | 5.0 | 0.00 | 0.00 | 0.00 | 10 | 1016.5 |
| 20260906143504 | 106 | 343 | 2.0 | 5.0 | 0.00 | 0.00 | 0.00 | 10 | 1016.5 |
| 20260906143003 | 106 | 217 | 3.0 | 6.0 | 0.00 | 0.00 | 0.00 | 10 | 1016.6 |
| 20260906142503 | 106 | 223 | 2.0 | 12.0 | 0.00 | 0.00 | 0.00 | 10 | 1016.6 |
| 20260906142004 | 105 | 327 | 4.0 | 12.0 | 0.00 | 0.00 | 0.00 | 10 | 1016.6 |
| 20260906141503 | 106 | 323 | 2.0 | 8.0 | 0.00 | 0.00 | 0.00 | 10 | 1016.7 |
| 20260906141003 | 106 | 335 | 1.0 | 9.0 | 0.00 | 0.00 | 0.00 | 10 | 1016.5 |
| 20260906140503 | 106 | 329 | 1.0 | 10.0 | 0.00 | 0.00 | 0.00 | 10 | 1016.6 |
| 20260906140004 | 106 | 316 | 4.0 | 10.0 | 0.00 | 0.00 | 0.00 | 10 | 1016.7 |
| 20260906135504 | 107 | 257 | 1.0 | 8.0 | 0.00 | 0.00 | 0.00 | 10 | 1016.7 |
| 20260906135003 | 106 | 27 | 3.0 | 8.0 | 0.00 | 0.00 | 0.00 | 10 | 1016.6 |
| 20260906134503 | 106 | 329 | 1.0 | 9.0 | 0.00 | 0.00 | 0.00 | 10 | 1016.5 |
| 20260906134004 | 106 | 310 | 2.0 | 11.0 | 0.00 | 0.00 | 0.00 | 10 | 1016.7 |
| 20260906133504 | 106 | 334 | 2.0 | 11.0 | 0.00 | 0.00 | 0.00 | 10 | 1016.6 |
| 20260906133003 | 107 | 47 | 2.0 | 7.0 | 0.00 | 0.00 | 0.00 | 10 | 1016.6 |
| 20260906132504 | 106 | 343 | 2.0 | 7.0 | 0.00 | 0.00 | 0.00 | 10 | 1016.5 |
| 20260906132004 | 106 | 282 | 2.0 | 7.0 | 0.00 | 0.00 | 0.00 | 10 | 1016.6 |
| 20260906131504 | 106 | 267 | 2.0 | 6.0 | 0.00 | 0.00 | 0.00 | 10 | 1016.7 |
| 20260906131004 | 107 | 345 | 4.0 | 6.0 | 0.00 | 0.00 | 0.00 | 10 | 1016.7 |
| 20260906130504 | 106 | 301 | 1.0 | 7.0 | 0.00 | 0.00 | 0.00 | 10 | 1016.8 |
| 20260906130004 | 106 | 250 | 2.0 | 7.0 | 0.00 | 0.00 | 0.00 | 10 | 1016.8 |
| 20260906125504 | 106 | 226 | 2.0 | 5.0 | 0.00 | 0.00 | 0.00 | 10 | 1016.8 |
| 20260906125003 | 105 | 225 | 2.0 | 7.0 | 0.00 | 0.00 | 0.00 | 10 | 1016.8 |
| 20260906124503 | 105 | 359 | 3.0 | 8.0 | 0.00 | 0.00 | 0.00 | 10 | 1016.8 |
| 20260906124003 | 105 | 16 | 1.0 | 8.0 | 0.00 | 0.00 | 0.00 | 10 | 1016.9 |
| 20260906123504 | 105 | 209 | 2.0 | 8.0 | 0.00 | 0.00 | 0.00 | 10 | 1016.9 |
| 20260906123004 | 105 | 221 | 2.0 | 8.0 | 0.00 | 0.00 | 0.00 | 10 | 1016.9 |
| 20260906122503 | 106 | 0 | 0.0 | 7.0 | 0.00 | 0.00 | 0.00 | 10 | 1017.0 |
| 20260906122004 | 105 | 0 | 0.0 | 7.0 | 0.00 | 0.00 | 0.00 | 10 | 1016.8 |
| 20260906121503 | 105 | 227 | 2.0 | 8.0 | 0.00 | 0.00 | 0.00 | 10 | 1017.0 |
| 20260906121003 | 104 | 230 | 2.0 | 8.0 | 0.00 | 0.00 | 0.00 | 10 | 1016.9 |
| 20260906120503 | 104 | 0 | 0.0 | 8.0 | 0.00 | 0.00 | 0.00 | 10 | 1016.9 |
| 20260906120004 | 104 | 279 | 3.0 | 8.0 | 0.00 | 0.00 | 0.00 | 10 | 1017.1 |
| 20260906115504 | 105 | 273 | 2.0 | 8.0 | 0.00 | 0.00 | 0.00 | 10 | 1017.1 |
| 20260906115003 | 105 | 244 | 4.0 | 8.0 | 0.00 | 0.00 | 0.00 | 10 | 1017.1 |
| 20260906114504 | 105 | 232 | 1.0 | 5.0 | 0.00 | 0.00 | 0.00 | 10 | 1017.2 |
| 20260906114004 | 105 | 127 | 2.0 | 5.0 | 0.00 | 0.00 | 0.00 | 10 | 1017.2 |
| 20260906113504 | 105 | 77 | 2.0 | 4.0 | 0.00 | 0.00 | 0.00 | 10 | 1017.4 |
| 20260906113004 | 105 | 64 | 2.0 | 4.0 | 0.00 | 0.00 | 0.00 | 10 | 1017.3 |
| 20260906112503 | 104 | 3 | 1.0 | 8.0 | 0.00 | 0.00 | 0.00 | 10 | 1017.4 |
| 20260906112003 | 104 | 0 | 0.0 | 8.0 | 0.00 | 0.00 | 0.00 | 10 | 1017.3 |
| 20260906111504 | 104 | 142 | 1.0 | 5.0 | 0.00 | 0.00 | 0.00 | 10 | 1017.3 |
| 20260906111004 | 104 | 221 | 2.0 | 7.0 | 0.00 | 0.00 | 0.00 | 10 | 1017.3 |
| 20260906110503 | 103 | 243 | 2.0 | 7.0 | 0.00 | 0.00 | 0.00 | 10 | 1017.4 |
| 20260906110003 | 103 | 0 | 0.0 | 5.0 | 0.00 | 0.00 | 0.00 | 10 | 1017.4 |
| 20260906105504 | 103 | 174 | 2.0 | 7.0 | 0.00 | 0.00 | 0.00 | 10 | 1017.5 |
| 20260906105004 | 102 | 261 | 2.0 | 7.0 | 0.00 | 0.00 | 0.00 | 10 | 1017.5 |
| 20260906104503 | 102 | 271 | 2.0 | 7.0 | 0.00 | 0.00 | 0.00 | 10 | 1017.6 |
| 20260906104003 | 102 | 268 | 2.0 | 6.0 | 0.00 | 0.00 | 0.00 | 10 | 1017.7 |
| 20260906103504 | 101 | 274 | 2.0 | 7.0 | 0.00 | 0.00 | 0.00 | 10 | 1017.5 |
| 20260906103003 | 101 | 269 | 2.0 | 7.0 | 0.00 | 0.00 | 0.00 | 10 | 1017.7 |
| 20260906102503 | 101 | 244 | 2.0 | 6.0 | 0.00 | 0.00 | 0.00 | 10 | 1017.6 |
| 20260906102004 | 101 | 192 | 2.0 | 6.0 | 0.00 | 0.00 | 0.00 | 10 | 1017.8 |
| 20260906101504 | 101 | 200 | 1.0 | 6.0 | 0.00 | 0.00 | 0.00 | 10 | 1017.8 |
| 20260906101003 | 101 | 250 | 1.0 | 5.0 | 0.00 | 0.00 | 0.00 | 10 | 1017.7 |
| 20260906100503 | 101 | 0 | 0.0 | 8.0 | 0.00 | 0.00 | 0.00 | 10 | 1017.8 |
| 20260906100004 | 100 | 266 | 1.0 | 8.0 | 0.00 | 0.00 | 0.00 | 10 | 1017.9 |
| 20260906095504 | 100 | 253 | 2.0 | 6.0 | 0.00 | 0.00 | 0.00 | 10 | 1017.9 |
| 20260906095003 | 101 | 268 | 1.0 | 4.0 | 0.00 | 0.00 | 0.00 | 10 | 1018.0 |
| 20260906094503 | 100 | 0 | 0.0 | 8.0 | 0.00 | 0.00 | 0.00 | 10 | 1017.9 |
| 20260906094004 | 100 | 354 | 2.0 | 8.0 | 0.00 | 0.00 | 0.00 | 10 | 1018.0 |
| 20260906093503 | 100 | 306 | 2.0 | 6.0 | 0.00 | 0.00 | 0.00 | 10 | 1017.9 |
| 20260906093004 | 99 | 329 | 2.0 | 6.0 | 0.00 | 0.00 | 0.00 | 10 | 1017.9 |
| 20260906092503 | 99 | 193 | 2.0 | 6.0 | 0.00 | 0.00 | 0.00 | 10 | 1017.9 |
| 20260906092004 | 98 | 277 | 2.0 | 7.0 | 0.00 | 0.00 | 0.00 | 10 | 1017.9 |
| 20260906091504 | 98 | 315 | 3.0 | 7.0 | 0.00 | 0.00 | 0.00 | 10 | 1018.0 |
| 20260906091003 | 98 | 276 | 3.0 | 8.0 | 0.00 | 0.00 | 0.00 | 10 | 1018.0 |
| 20260906090504 | 97 | 276 | 4.0 | 8.0 | 0.00 | 0.00 | 0.00 | 10 | 1018.0 |
| 20260906090004 | 96 | 254 | 2.0 | 9.0 | 0.00 | 0.00 | 0.00 | 10 | 1018.0 |
| 20260906085503 | 96 | 264 | 4.0 | 9.0 | 0.00 | 0.00 | 0.00 | 10 | 1018.2 |
| 20260906085003 | 96 | 296 | 2.0 | 8.0 | 0.00 | 0.00 | 0.00 | 10 | 1018.2 |
| 20260906084504 | 96 | 329 | 1.0 | 7.0 | 0.00 | 0.00 | 0.00 | 10 | 1018.2 |
| 20260906084003 | 96 | 264 | 3.0 | 7.0 | 0.00 | 0.00 | 0.00 | 10 | 1018.1 |
| 20260906083503 | 95 | 255 | 2.0 | 6.0 | 0.00 | 0.00 | 0.00 | 10 | 1018.2 |
| 20260906083004 | 95 | 236 | 1.0 | 6.0 | 0.00 | 0.00 | 0.00 | 11 | 1018.2 |
| 20260906082503 | 95 | 196 | 2.0 | 4.0 | 0.00 | 0.00 | 0.00 | 12 | 1018.3 |
| 20260906082004 | 94 | 217 | 2.0 | 4.0 | 0.00 | 0.00 | 0.00 | 12 | 1018.2 |
| 20260906081504 | 94 | 249 | 2.0 | 8.0 | 0.00 | 0.00 | 0.00 | 13 | 1018.2 |
| 20260906081003 | 93 | 345 | 1.0 | 11.0 | 0.00 | 0.00 | 0.00 | 13 | 1018.2 |
| 20260906080504 | 92 | 50 | 2.0 | 11.0 | 0.00 | 0.00 | 0.00 | 14 | 1018.2 |
| 20260906080003 | 92 | 56 | 3.0 | 8.0 | 0.00 | 0.00 | 0.00 | 14 | 1018.2 |
| 20260906075503 | 92 | 52 | 2.0 | 8.0 | 0.00 | 0.00 | 0.00 | 15 | 1018.2 |
| 20260906075004 | 92 | 34 | 2.0 | 8.0 | 0.00 | 0.00 | 0.00 | 15 | 1018.1 |
| 20260906074503 | 91 | 13 | 2.0 | 8.0 | 0.00 | 0.00 | 0.00 | 15 | 1018.1 |
| 20260906074003 | 90 | 15 | 2.0 | 8.0 | 0.00 | 0.00 | 0.00 | 16 | 1018.2 |
| 20260906073504 | 90 | 325 | 3.0 | 8.0 | 0.00 | 0.00 | 0.00 | 16 | 1018.2 |
| 20260906073004 | 90 | 2 | 2.0 | 11.0 | 0.00 | 0.00 | 0.00 | 16 | 1018.2 |
| 20260906072503 | 90 | 347 | 2.0 | 11.0 | 0.00 | 0.00 | 0.00 | 16 | 1018.1 |
| 20260906072004 | 89 | 287 | 1.0 | 8.0 | 0.00 | 0.00 | 0.00 | 17 | 1018.0 |
| 20260906071503 | 89 | 323 | 3.0 | 8.0 | 0.00 | 0.00 | 0.00 | 17 | 1018.0 |
| 20260906071004 | 89 | 54 | 2.0 | 9.0 | 0.00 | 0.00 | 0.00 | 18 | 1018.0 |
| 20260906070503 | 89 | 67 | 2.0 | 9.0 | 0.00 | 0.00 | 0.00 | 18 | 1017.9 |
| 20260906070004 | 89 | 46 | 2.0 | 8.0 | 0.00 | 0.00 | 0.00 | 18 | 1017.7 |
| 20260906065503 | 89 | 36 | 2.0 | 7.0 | 0.00 | 0.00 | 0.00 | 18 | 1017.7 |
| 20260906065003 | 88 | 73 | 1.0 | 10.0 | 0.00 | 0.00 | 0.00 | 18 | 1017.7 |
| 20260906064503 | 87 | 212 | 1.0 | 10.0 | 0.00 | 0.00 | 0.00 | 18 | 1017.6 |
| 20260906064004 | 88 | 233 | 3.0 | 10.0 | 0.00 | 0.00 | 0.00 | 18 | 1017.5 |
| 20260906063503 | 88 | 274 | 2.0 | 6.0 | 0.00 | 0.00 | 0.00 | 18 | 1017.6 |
| 20260906063003 | 88 | 29 | 2.0 | 6.0 | 0.00 | 0.00 | 0.00 | 18 | 1017.5 |
| 20260906062503 | 88 | 0 | 0.0 | 4.0 | 0.00 | 0.00 | 0.00 | 19 | 1017.4 |
| 20260906062004 | 88 | 0 | 0.0 | 3.0 | 0.00 | 0.00 | 0.00 | 20 | 1017.4 |
| 20260906061503 | 87 | 0 | 0.0 | 3.0 | 0.00 | 0.00 | 0.00 | 21 | 1017.3 |
| 20260906061003 | 86 | 355 | 2.0 | 3.0 | 0.00 | 0.00 | 0.00 | 22 | 1017.3 |
| 20260906060503 | 86 | 0 | 0.0 | 3.0 | 0.00 | 0.00 | 0.00 | 24 | 1017.4 |
| 20260906060004 | 86 | 0 | 0.0 | 3.0 | 0.00 | 0.00 | 0.00 | 24 | 1017.3 |
| 20260906055503 | 86 | 0 | 0.0 | 4.0 | 0.00 | 0.00 | 0.00 | 22 | 1017.3 |
| 20260906055003 | 85 | 0 | 0.0 | 8.0 | 0.00 | 0.00 | 0.00 | 22 | 1017.2 |
| 20260906054504 | 85 | 323 | 2.0 | 8.0 | 0.00 | 0.00 | 0.00 | 22 | 1017.3 |
| 20260906054003 | 84 | 323 | 1.0 | 8.0 | 0.00 | 0.00 | 0.00 | 23 | 1017.2 |
| 20260906053503 | 83 | 41 | 1.0 | 3.0 | 0.00 | 0.00 | 0.00 | 25 | 1017.2 |
| 20260906053004 | 83 | 0 | 0.0 | 2.0 | 0.00 | 0.00 | 0.00 | 27 | 1017.2 |
| 20260906052504 | 82 | 0 | 0.0 | 2.0 | 0.00 | 0.00 | 0.00 | 28 | 1017.2 |
| 20260906052003 | 81 | 0 | 0.0 | 2.0 | 0.00 | 0.00 | 0.00 | 28 | 1017.2 |
| 20260906051503 | 80 | 0 | 0.0 | 2.0 | 0.00 | 0.00 | 0.00 | 30 | 1017.2 |
| 20260906051003 | 80 | 0 | 0.0 | 2.0 | 0.00 | 0.00 | 0.00 | 31 | 1017.3 |
| 20260906050503 | 79 | 0 | 0.0 | 2.0 | 0.00 | 0.00 | 0.00 | 32 | 1017.2 |
| 20260906050004 | 79 | 0 | 0.0 | 2.0 | 0.00 | 0.00 | 0.00 | 33 | 1017.2 |
| 20260906045503 | 78 | 237 | 2.0 | 2.0 | 0.00 | 0.00 | 0.00 | 32 | 1017.1 |
| 20260906045003 | 78 | 0 | 0.0 | 3.0 | 0.00 | 0.00 | 0.00 | 32 | 1017.1 |
| 20260906044504 | 78 | 0 | 0.0 | 3.0 | 0.00 | 0.00 | 0.00 | 31 | 1017.0 |
| 20260906044004 | 78 | 0 | 0.0 | 2.0 | 0.00 | 0.00 | 0.00 | 31 | 1016.9 |
| 20260906043503 | 77 | 0 | 0.0 | 2.0 | 0.00 | 0.00 | 0.00 | 31 | 1016.8 |
| 20260906043003 | 77 | 0 | 0.0 | 3.0 | 0.00 | 0.00 | 0.00 | 31 | 1016.7 |
| 20260906042503 | 77 | 0 | 0.0 | 4.0 | 0.00 | 0.00 | 0.00 | 31 | 1016.7 |
| 20260906042003 | 76 | 10 | 1.0 | 4.0 | 0.00 | 0.00 | 0.00 | 31 | 1016.6 |
| 20260906041504 | 76 | 19 | 1.0 | 4.0 | 0.00 | 0.00 | 0.00 | 31 | 1016.4 |
| 20260906041004 | 76 | 30 | 1.0 | 4.0 | 0.00 | 0.00 | 0.00 | 32 | 1016.4 |
| 20260906040503 | 76 | 22 | 1.0 | 4.0 | 0.00 | 0.00 | 0.00 | 32 | 1016.4 |
| 20260906040003 | 76 | 0 | 0.0 | 4.0 | 0.00 | 0.00 | 0.00 | 32 | 1016.3 |
| 20260906035503 | 76 | 41 | 1.0 | 4.0 | 0.00 | 0.00 | 0.00 | 33 | 1016.3 |
| 20260906035004 | 76 | 39 | 1.0 | 4.0 | 0.00 | 0.00 | 0.00 | 33 | 1016.2 |
| 20260906034503 | 76 | 0 | 0.0 | 4.0 | 0.00 | 0.00 | 0.00 | 33 | 1016.2 |
| 20260906034003 | 76 | 41 | 2.0 | 6.0 | 0.00 | 0.00 | 0.00 | 34 | 1016.2 |
| 20260906033503 | 76 | 0 | 0.0 | 6.0 | 0.00 | 0.00 | 0.00 | 34 | 1016.2 |
| 20260906033004 | 76 | 34 | 2.0 | 6.0 | 0.00 | 0.00 | 0.00 | 34 | 1016.2 |
| 20260906032503 | 76 | 45 | 2.0 | 4.0 | 0.00 | 0.00 | 0.00 | 34 | 1016.1 |
| 20260906032003 | 76 | 0 | 0.0 | 3.0 | 0.00 | 0.00 | 0.00 | 34 | 1016.1 |
| 20260906031503 | 76 | 84 | 1.0 | 3.0 | 0.00 | 0.00 | 0.00 | 34 | 1016.1 |
| 20260906031004 | 76 | 0 | 0.0 | 3.0 | 0.00 | 0.00 | 0.00 | 34 | 1016.1 |
| 20260906030503 | 76 | 0 | 0.0 | 3.0 | 0.00 | 0.00 | 0.00 | 34 | 1015.9 |
| 20260906030003 | 76 | 0 | 0.0 | 3.0 | 0.00 | 0.00 | 0.00 | 34 | 1015.9 |
| 20260906025503 | 76 | 35 | 1.0 | 4.0 | 0.00 | 0.00 | 0.00 | 33 | 1015.8 |
| 20260906025003 | 76 | 0 | 0.0 | 4.0 | 0.00 | 0.00 | 0.00 | 33 | 1015.9 |
| 20260906024503 | 76 | 84 | 1.0 | 4.0 | 0.00 | 0.00 | 0.00 | 33 | 1015.9 |
| 20260906024003 | 76 | 157 | 1.0 | 4.0 | 0.00 | 0.00 | 0.00 | 33 | 1015.8 |
| 20260906023504 | 76 | 0 | 0.0 | 4.0 | 0.00 | 0.00 | 0.00 | 33 | 1015.7 |
| 20260906023004 | 76 | 209 | 1.0 | 4.0 | 0.00 | 0.00 | 0.00 | 33 | 1015.7 |
| 20260906022503 | 76 | 164 | 1.0 | 4.0 | 0.00 | 0.00 | 0.00 | 33 | 1015.8 |
| 20260906022004 | 76 | 123 | 1.0 | 4.0 | 0.00 | 0.00 | 0.00 | 33 | 1015.8 |
| 20260906021503 | 76 | 0 | 0.0 | 5.0 | 0.00 | 0.00 | 0.00 | 34 | 1015.9 |
| 20260906021004 | 76 | 0 | 0.0 | 5.0 | 0.00 | 0.00 | 0.00 | 34 | 1015.9 |
| 20260906020503 | 76 | 0 | 0.0 | 4.0 | 0.00 | 0.00 | 0.00 | 34 | 1015.9 |
| 20260906020004 | 76 | 0 | 0.0 | 3.0 | 0.00 | 0.00 | 0.00 | 34 | 1015.9 |
| 20260906015504 | 76 | 0 | 0.0 | 3.0 | 0.00 | 0.00 | 0.00 | 34 | 1015.8 |
| 20260906015004 | 76 | 208 | 1.0 | 2.0 | 0.00 | 0.00 | 0.00 | 34 | 1015.9 |
| 20260906014504 | 76 | 0 | 0.0 | 2.0 | 0.00 | 0.00 | 0.00 | 33 | 1015.9 |
| 20260906014003 | 77 | 221 | 1.0 | 2.0 | 0.00 | 0.00 | 0.00 | 33 | 1015.9 |
| 20260906013503 | 77 | 0 | 0.0 | 2.0 | 0.00 | 0.00 | 0.00 | 33 | 1016.0 |
| 20260906013003 | 77 | 0 | 0.0 | 3.0 | 0.00 | 0.00 | 0.00 | 33 | 1016.0 |
| 20260906012503 | 77 | 248 | 1.0 | 3.0 | 0.00 | 0.00 | 0.00 | 32 | 1015.9 |
| 20260906012004 | 77 | 318 | 1.0 | 3.0 | 0.00 | 0.00 | 0.00 | 32 | 1016.0 |
| 20260906011503 | 77 | 0 | 0.0 | 4.0 | 0.00 | 0.00 | 0.00 | 31 | 1016.0 |
| 20260906011003 | 77 | 0 | 0.0 | 4.0 | 0.00 | 0.00 | 0.00 | 31 | 1015.9 |
| 20260906010503 | 77 | 0 | 0.0 | 3.0 | 0.00 | 0.00 | 0.00 | 30 | 1015.9 |
| 20260906010004 | 77 | 30 | 1.0 | 4.0 | 0.00 | 0.00 | 0.00 | 30 | 1015.9 |
| 20260906005503 | 77 | 43 | 1.0 | 4.0 | 0.00 | 0.00 | 0.00 | 30 | 1015.8 |
| 20260906005004 | 77 | 35 | 1.0 | 4.0 | 0.00 | 0.00 | 0.00 | 30 | 1015.8 |
| 20260906004503 | 78 | 0 | 0.0 | 4.0 | 0.00 | 0.00 | 0.00 | 30 | 1015.8 |
| 20260906004003 | 78 | 0 | 0.0 | 3.0 | 0.00 | 0.00 | 0.00 | 29 | 1015.8 |
| 20260906003503 | 77 | 0 | 0.0 | 4.0 | 0.00 | 0.00 | 0.00 | 29 | 1015.8 |
| 20260906003003 | 77 | 205 | 1.0 | 4.0 | 0.00 | 0.00 | 0.00 | 29 | 1015.9 |
| 20260906002504 | 77 | 208 | 1.0 | 4.0 | 0.00 | 0.00 | 0.00 | 30 | 1015.7 |
| 20260906002003 | 77 | 286 | 2.0 | 6.0 | 0.00 | 0.00 | 0.00 | 30 | 1015.8 |
| 20260906001503 | 77 | 0 | 0.0 | 6.0 | 0.00 | 0.00 | 0.00 | 31 | 1015.8 |
| 20260906001003 | 78 | 0 | 0.0 | 4.0 | 0.00 | 0.00 | 0.00 | 30 | 1015.8 |
| 20260906000504 | 78 | 0 | 0.0 | 4.0 | 0.00 | 0.00 | 0.00 | 30 | 1015.8 |
| 20260906000003 | 78 | 153 | 1.0 | 5.0 | 0.00 | 0.00 | 0.00 | 29 | 1015.9 |
| 20260905235503 | 78 | 204 | 1.0 | 5.0 | 0.00 | 0.00 | 0.00 | 29 | 1016.0 |
| 20260905235003 | 78 | 229 | 1.0 | 3.0 | 0.00 | 0.00 | 0.00 | 29 | 1015.9 |
| 20260905234504 | 78 | 204 | 2.0 | 3.0 | 0.00 | 0.00 | 0.00 | 28 | 1015.7 |
| 20260905234004 | 78 | 140 | 1.0 | 3.0 | 0.00 | 0.00 | 0.00 | 28 | 1015.8 |
| 20260905233503 | 78 | 352 | 1.0 | 4.0 | 0.00 | 0.00 | 0.00 | 28 | 1015.8 |
| 20260905233003 | 78 | 0 | 0.0 | 4.0 | 0.00 | 0.00 | 0.00 | 29 | 1015.8 |
| 20260905232504 | 78 | 51 | 2.0 | 4.0 | 0.00 | 0.00 | 0.00 | 29 | 1015.8 |
| 20260905232003 | 78 | 165 | 1.0 | 4.0 | 0.00 | 0.00 | 0.00 | 28 | 1016.0 |
| 20260905231503 | 78 | 187 | 1.0 | 3.0 | 0.00 | 0.00 | 0.00 | 28 | 1016.1 |
| 20260905231004 | 78 | 0 | 0.0 | 4.0 | 0.00 | 0.00 | 0.00 | 28 | 1016.1 |
| 20260905230504 | 78 | 0 | 0.0 | 4.0 | 0.00 | 0.00 | 0.00 | 28 | 1016.1 |
| 20260905230003 | 78 | 0 | 0.0 | 3.0 | 0.00 | 0.00 | 0.00 | 28 | 1016.0 |
| 20260905225504 | 78 | 0 | 0.0 | 3.0 | 0.00 | 0.00 | 0.00 | 28 | 1016.1 |
| 20260905225003 | 79 | 0 | 0.0 | 4.0 | 0.00 | 0.00 | 0.00 | 28 | 1016.2 |
| 20260905224503 | 79 | 0 | 0.0 | 4.0 | 0.00 | 0.00 | 0.00 | 28 | 1016.1 |
| 20260905224003 | 79 | 32 | 1.0 | 4.0 | 0.00 | 0.00 | 0.00 | 28 | 1016.1 |
| 20260905223504 | 79 | 25 | 1.0 | 4.0 | 0.00 | 0.00 | 0.00 | 28 | 1016.2 |
| 20260905223004 | 79 | 34 | 1.0 | 4.0 | 0.00 | 0.00 | 0.00 | 28 | 1016.1 |
| 20260905222503 | 79 | 198 | 1.0 | 3.0 | 0.00 | 0.00 | 0.00 | 28 | 1016.1 |
| 20260905222003 | 79 | 0 | 0.0 | 2.0 | 0.00 | 0.00 | 0.00 | 28 | 1016.2 |
| 20260905221503 | 79 | 0 | 0.0 | 2.0 | 0.00 | 0.00 | 0.00 | 28 | 1016.0 |
| 20260905221004 | 79 | 0 | 0.0 | 5.0 | 0.00 | 0.00 | 0.00 | 28 | 1016.1 |
| 20260905220503 | 79 | 0 | 0.0 | 5.0 | 0.00 | 0.00 | 0.00 | 28 | 1016.1 |
| 20260905220003 | 80 | 220 | 1.0 | 3.0 | 0.00 | 0.00 | 0.00 | 28 | 1016.0 |
| 20260905215503 | 80 | 231 | 2.0 | 3.0 | 0.00 | 0.00 | 0.00 | 28 | 1016.0 |
| 20260905215004 | 80 | 353 | 1.0 | 3.0 | 0.00 | 0.00 | 0.00 | 29 | 1016.1 |
| 20260905214503 | 80 | 2 | 1.0 | 4.0 | 0.00 | 0.00 | 0.00 | 29 | 1016.0 |
| 20260905214004 | 80 | 7 | 1.0 | 4.0 | 0.00 | 0.00 | 0.00 | 29 | 1016.2 |
| 20260905213504 | 80 | 0 | 0.0 | 3.0 | 0.00 | 0.00 | 0.00 | 29 | 1016.2 |
| 20260905213003 | 80 | 157 | 1.0 | 3.0 | 0.00 | 0.00 | 0.00 | 29 | 1016.3 |